User: anonymous   Login
Location: Les Salelles
(44.4192°N, 4.1044°E)
Time: 02:48:36
(UTC+00:00)
Language:

Cosmos 1703 - Orbit

View from above orbital plane
View from above orbital plane
View from above satellite
View from above satellite

Ground track
Ground track

The orbit data is extracted from the following two-line orbital elements,

1 16262U 85108A   21101.61683065  .00001099  00000-0  62829-4 0  9999
2 16262  82.4766 319.0450 0012174 151.5654 208.6243 15.11615730929191
Epoch (UTC): 11 April 2021 14:48:14
Eccentricity: 0.0012174
inclination: 82.4766°
perigee height: 523 km
apogee height: 539 km
right ascension of ascending node: 319.0450°
argument of perigee: 151.5654°
revolutions per day: 15.11615730
mean anomaly at epoch: 208.6243°
orbit number at epoch: 92919

The dashed part of the orbit path shows where the satellite is in the earth's shadow,  

DLR